Torna al catalogo

CZ-6A DEB

AttivoPO
NORAD 55883·DEBRIS·🇨🇳 China

Lanciato Nov 11, 2022 da Taiyuan Satellite Launch Center

Loading…

Prossimi Passaggi (prossime 24 ore)

TLE

AggiornatoSource: Space-Track

Epoca: Sep 14, 2026, 11:35 UTC

1 55883U 22151AAF 26257.48281964  .00003087  00000-0  49240-3 0  9994
2 55883  98.6737 353.1292 0114693 319.5715  39.7006 14.68437460191730

Traccia CZ-6A DEB in tempo reale con AllMySat

Download on the App Store